Hourly Data Report for October 28, 2012

All times are specified in Local Standard Time (LST). Add 1 hour to adjust for Daylight Saving Time where and when it is observed.

KITCHENER/WATERLOO
ONTARIO

43°27'39.000" N
80°22'43.000" W
321.60 m
6144239
71368
YKF

Download Data

Hourly Data (October 2012)
Hourly Data Report for October 28, 2012
Temp Definition
°C
Dew Point Temp Definition
°C
Rel Hum Definition
%
Wind Dir Definition
10's deg

Wind Spd Definition
km/h
Visibility Definition
km
Stn Press Definition
kPa
Hmdx Definition


Wind Chill Definition


Weather Definition


TIME
00:00 Legend Double Dagger 2.0 1.1 94 34 9 16.1 98.20     LegendNANA
01:00 Legend Double Dagger 1.9 1.2 95 36 9 16.1 98.20     LegendNANA
02:00 Legend Double Dagger 1.0 0.4 96 34 9 16.1 98.21     LegendNANA
03:00 Legend Double Dagger 1.8 0.9 94 36 9 16.1 98.20     LegendNANA
04:00 Legend Double Dagger 3.3 1.8 90 36 18 16.1 98.19     LegendNANA
05:00 Legend Double Dagger 3.6 1.8 88 35 17 16.1 98.19     LegendNANA
06:00 Legend Double Dagger 3.2 1.6 89 35 22 16.1 98.13     LegendNANA
07:00 Legend Double Dagger 3.5 1.5 86 36 22 16.1 98.09     LegendNANA
08:00 Legend Double Dagger 3.9 1.8 86 3 15 16.1 98.18     LegendNANA
09:00 Legend Double Dagger 3.8 1.6 86 1 22 16.1 98.20     LegendNANA
10:00 Legend Double Dagger 4.1 1.5 83 1 28 16.1 98.15     LegendNANA
11:00 Legend Double Dagger 4.0 1.7 85 1 21 16.1 98.16     LegendNANA
12:00 Legend Double Dagger 3.2 2.0 92 36 24 11.3 98.05     LegendNANA
13:00 Legend Double Dagger 3.6 2.4 92 36 21 16.1 97.97     LegendNANA
14:00 Legend Double Dagger 3.8 2.5 91 35 24 16.1 97.93     LegendNANA
15:00 Legend Double Dagger 4.0 2.5 90 36 22 16.1 97.90     LegendNANA
16:00 Legend Double Dagger 3.9 2.6 91 36 21 14.5 97.90     LegendNANA
17:00 Legend Double Dagger 3.7 2.4 91 35 24 16.1 97.87     LegendNANA
18:00 Legend Double Dagger 3.6 2.3 91 35 26 16.1 97.83     LegendNANA
19:00 Legend Double Dagger 3.5 2.3 92 35 28 16.1 97.85     LegendNANA
20:00 Legend Double Dagger 3.4 2.2 92 35 22 12.9 97.81     LegendNANA
21:00 Legend Double Dagger 3.3 2.1 92 36 18 11.3 97.79     LegendNANA
22:00 Legend Double Dagger 3.3 2.0 91 36 22 16.1 97.77     LegendNANA
23:00 Legend Double Dagger 2.8 1.8 93 35 21 6.4 97.69     LegendNANA

Notes on Data Quality.

Legend

  • E = Estimated
  • M = Missing
  • NA = Not Available
  • ‡ = Partner data that is not subject to review by the National Climate Archives
Date modified: